SKG790 KBWI-CYOO

Flight info

Callsign SKG790
Flight time 0h 50m
Altitude 43000
Route DCT
Aircraft LJ35/M-SGCDK/S

Departure

Time 2026-05-06 17:08
Airport Baltimore/Washington International Thurgood Marshall Airport (KBWI)

Arrival

Time 2026-05-06 17:58
Airport Oshawa Executive Airport (CYOO)
Time Latitude Longitude Altitude Speed Heading
2026-05-06 17:03 39.18541 -76.65630 136 ft 0 kts 317°
2026-05-06 17:06 39.18543 -76.65676 136 ft 13 kts 272°
2026-05-06 17:06 39.18525 -76.65842 135 ft 24 kts 304°
2026-05-06 17:06 39.18571 -76.66040 137 ft 23 kts 309°
2026-05-06 17:06 39.18677 -76.66187 141 ft 20 kts 336°
2026-05-06 17:07 39.18768 -76.66268 143 ft 12 kts 281°
2026-05-06 17:07 39.18722 -76.66339 145 ft 11 kts 157°
2026-05-06 17:07 39.18709 -76.66330 145 ft 0 kts 146°
2026-05-06 17:08 39.18701 -76.66322 144 ft 16 kts 149°
2026-05-06 17:08 39.18277 -76.65929 124 ft 135 kts 145°
2026-05-06 17:08 39.17335 -76.64971 682 ft 198 kts 142°
2026-05-06 17:08 39.16100 -76.63825 1765 ft 234 kts 161°
2026-05-06 17:09 39.14486 -76.63760 3260 ft 239 kts 199°
2026-05-06 17:09 39.13131 -76.64981 4942 ft 242 kts 233°
2026-05-06 17:09 39.12472 -76.66973 6769 ft 244 kts 256°
2026-05-06 17:09 39.12512 -76.69136 8606 ft 247 kts 277°
2026-05-06 17:10 39.13248 -76.71176 10432 ft 256 kts 298°
2026-05-06 17:10 39.14573 -76.72758 12063 ft 273 kts 318°
2026-05-06 17:10 39.16391 -76.73726 13606 ft 294 kts 339°
2026-05-06 17:10 39.18504 -76.73849 15071 ft 311 kts 360°
2026-05-06 17:11 39.20623 -76.73187 16541 ft 320 kts 10°
2026-05-06 17:11 39.22781 -76.72403 18041 ft 321 kts
2026-05-06 17:11 39.24991 -76.71884 19326 ft 321 kts
2026-05-06 17:11 39.27181 -76.71725 20531 ft 320 kts 353°
2026-05-06 17:12 39.29400 -76.71959 21713 ft 319 kts 344°
2026-05-06 17:12 39.31530 -76.72727 22905 ft 317 kts 334°
2026-05-06 17:12 39.33593 -76.73785 23956 ft 320 kts 332°
2026-05-06 17:12 39.35688 -76.74861 24891 ft 327 kts 334°
2026-05-06 17:13 39.37874 -76.75796 25820 ft 333 kts 336°
2026-05-06 17:13 39.40086 -76.76695 26706 ft 337 kts 336°
2026-05-06 17:13 39.42299 -76.77662 27573 ft 341 kts 334°
2026-05-06 17:13 39.44557 -76.78680 28426 ft 345 kts 334°
2026-05-06 17:14 39.46852 -76.79691 29265 ft 349 kts 335°
2026-05-06 17:14 39.49170 -76.80695 30037 ft 354 kts 335°
2026-05-06 17:14 39.51508 -76.81717 30748 ft 355 kts 334°
2026-05-06 17:14 39.53864 -76.82754 31524 ft 354 kts 334°
2026-05-06 17:15 39.56154 -76.83759 32457 ft 348 kts 334°
2026-05-06 17:15 39.58441 -76.84762 33406 ft 342 kts 334°
2026-05-06 17:15 39.60681 -76.85748 34237 ft 337 kts 333°
2026-05-06 17:15 39.62876 -76.86720 34792 ft 338 kts 333°
2026-05-06 17:16 39.65109 -76.87707 35310 ft 340 kts 333°
2026-05-06 17:16 39.67372 -76.88703 35837 ft 341 kts 333°
2026-05-06 17:16 39.69594 -76.89682 36343 ft 343 kts 333°
2026-05-06 17:16 39.71867 -76.90686 36831 ft 344 kts 333°
2026-05-06 17:17 39.74134 -76.91689 37339 ft 345 kts 333°
2026-05-06 17:17 39.76421 -76.92701 37824 ft 346 kts 333°
2026-05-06 17:17 39.78697 -76.93708 38296 ft 348 kts 333°
2026-05-06 17:17 39.81002 -76.94727 38710 ft 349 kts 333°
2026-05-06 17:18 39.83276 -76.95735 39111 ft 349 kts 333°
2026-05-06 17:18 39.85586 -76.96759 39507 ft 349 kts 333°
2026-05-06 17:18 39.87866 -76.97771 39899 ft 349 kts 333°
2026-05-06 17:18 39.90180 -76.98799 40290 ft 349 kts 332°
2026-05-06 17:19 39.92479 -76.99820 40686 ft 349 kts 332°
2026-05-06 17:19 39.94790 -77.00848 41063 ft 349 kts 332°
2026-05-06 17:19 39.97070 -77.01864 41415 ft 350 kts 332°
2026-05-06 17:19 39.99378 -77.02891 41768 ft 350 kts 332°
2026-05-06 17:20 40.01669 -77.03912 42126 ft 350 kts 332°
2026-05-06 17:20 40.03980 -77.04943 42468 ft 350 kts 332°
2026-05-06 17:20 40.06294 -77.05976 42800 ft 351 kts 332°
2026-05-06 17:21 40.11005 -77.08090 42838 ft 368 kts 332°
2026-05-06 17:21 40.15962 -77.10302 42852 ft 384 kts 333°
2026-05-06 17:22 40.21114 -77.12611 42846 ft 395 kts 333°
2026-05-06 17:22 40.26360 -77.14965 42838 ft 404 kts 333°
2026-05-06 17:23 40.31733 -77.17381 42839 ft 411 kts 333°
2026-05-06 17:23 40.37166 -77.19827 42833 ft 416 kts 333°
2026-05-06 17:24 40.42652 -77.22302 42824 ft 420 kts 333°
2026-05-06 17:24 40.48176 -77.24799 42830 ft 422 kts 333°
2026-05-06 17:25 40.53758 -77.27325 42825 ft 423 kts 333°
2026-05-06 17:25 40.59307 -77.29843 42833 ft 423 kts 333°
2026-05-06 17:26 40.64863 -77.32366 42829 ft 424 kts 333°
2026-05-06 17:26 40.70452 -77.34911 42830 ft 424 kts 333°
2026-05-06 17:27 40.76011 -77.37444 42830 ft 424 kts 333°
2026-05-06 17:27 40.81596 -77.39997 42823 ft 424 kts 333°
2026-05-06 17:28 40.87175 -77.42549 42816 ft 424 kts 333°
2026-05-06 17:28 40.92732 -77.45097 42819 ft 423 kts 333°
2026-05-06 17:29 40.98286 -77.47647 42803 ft 423 kts 332°
2026-05-06 17:29 41.03864 -77.50214 42805 ft 423 kts 332°
2026-05-06 17:30 41.09419 -77.52774 42795 ft 423 kts 332°
2026-05-06 17:30 41.14963 -77.55334 42799 ft 423 kts 332°
2026-05-06 17:31 41.20531 -77.57909 42803 ft 423 kts 332°
2026-05-06 17:31 41.26066 -77.60474 42799 ft 423 kts 332°
2026-05-06 17:32 41.31616 -77.63049 42803 ft 421 kts 332°
2026-05-06 17:32 41.37129 -77.65616 42807 ft 422 kts 332°
2026-05-06 17:33 41.42682 -77.68201 42790 ft 422 kts 332°
2026-05-06 17:33 41.48234 -77.70794 42817 ft 422 kts 332°
2026-05-06 17:34 41.53766 -77.73380 42819 ft 422 kts 332°
2026-05-06 17:34 41.59306 -77.75974 42825 ft 423 kts 332°
2026-05-06 17:35 41.64873 -77.78588 42837 ft 423 kts 332°
2026-05-06 17:35 41.70418 -77.81194 42834 ft 423 kts 332°
2026-05-06 17:36 41.78744 -77.85117 42845 ft 423 kts 332°
2026-05-06 17:36 41.84289 -77.87737 42857 ft 424 kts 332°
2026-05-06 17:37 41.89863 -77.90375 42866 ft 424 kts 332°
2026-05-06 17:37 41.95409 -77.93003 42877 ft 423 kts 332°
2026-05-06 17:38 42.00977 -77.95648 42884 ft 424 kts 332°
2026-05-06 17:38 42.06489 -77.98266 42048 ft 419 kts 331°
2026-05-06 17:39 42.09215 -77.99570 41370 ft 419 kts 330°
2026-05-06 17:39 42.11959 -78.00879 40751 ft 418 kts 330°
2026-05-06 17:39 42.14708 -78.02189 40130 ft 417 kts 330°
2026-05-06 17:39 42.17436 -78.03491 39594 ft 416 kts 329°
2026-05-06 17:40 42.19242 -78.04355 39246 ft 415 kts 329°
2026-05-06 17:40 42.21972 -78.05663 38701 ft 414 kts 329°
2026-05-06 17:40 42.24686 -78.06963 38045 ft 413 kts 328°
2026-05-06 17:40 42.27370 -78.08250 37290 ft 413 kts 328°
2026-05-06 17:41 42.30095 -78.09561 36643 ft 416 kts 328°
2026-05-06 17:41 42.32810 -78.10862 36203 ft 415 kts 328°
2026-05-06 17:41 42.35544 -78.12174 35703 ft 415 kts 328°
2026-05-06 17:41 42.38278 -78.13492 35207 ft 416 kts 328°
2026-05-06 17:42 42.40976 -78.14792 34702 ft 416 kts 328°
2026-05-06 17:42 42.43725 -78.16117 34096 ft 418 kts 326°
2026-05-06 17:42 42.46485 -78.17452 33432 ft 420 kts 327°
2026-05-06 17:42 42.49231 -78.18780 32671 ft 424 kts 327°
2026-05-06 17:43 42.52041 -78.20139 31853 ft 428 kts 328°
2026-05-06 17:43 42.54827 -78.21485 31041 ft 433 kts 329°
2026-05-06 17:43 42.57712 -78.22885 30632 ft 438 kts 329°
2026-05-06 17:43 42.60590 -78.24272 30168 ft 438 kts 329°
2026-05-06 17:44 42.63441 -78.25656 29502 ft 441 kts 330°
2026-05-06 17:44 42.66349 -78.27075 28785 ft 444 kts 330°
2026-05-06 17:44 42.69243 -78.28481 28067 ft 446 kts 331°
2026-05-06 17:44 42.72188 -78.29911 27311 ft 449 kts 331°
2026-05-06 17:45 42.75142 -78.31350 26511 ft 451 kts 332°
2026-05-06 17:45 42.78124 -78.32809 25802 ft 457 kts 332°
2026-05-06 17:45 42.81089 -78.34254 25519 ft 457 kts 332°
2026-05-06 17:45 42.84091 -78.35716 25187 ft 457 kts 332°
2026-05-06 17:46 42.87106 -78.37193 24825 ft 458 kts 333°
2026-05-06 17:46 42.90107 -78.38666 24455 ft 459 kts 333°
2026-05-06 17:46 42.93087 -78.40126 23914 ft 460 kts 333°
2026-05-06 17:46 42.96113 -78.41610 23251 ft 462 kts 333°
2026-05-06 17:47 42.99152 -78.43103 22454 ft 465 kts 333°
2026-05-06 17:47 43.02225 -78.44616 21611 ft 468 kts 333°
2026-05-06 17:47 43.05271 -78.46116 20720 ft 471 kts 334°
2026-05-06 17:47 43.08327 -78.47612 19915 ft 453 kts 334°
2026-05-06 17:48 43.11235 -78.49034 19267 ft 433 kts 333°
2026-05-06 17:48 43.14011 -78.50415 18637 ft 425 kts 333°
2026-05-06 17:48 43.16813 -78.51816 17987 ft 423 kts 333°
2026-05-06 17:48 43.19557 -78.53173 17297 ft 422 kts 333°
2026-05-06 17:49 43.22326 -78.54535 16624 ft 421 kts 333°
2026-05-06 17:49 43.25050 -78.55885 15988 ft 419 kts 333°
2026-05-06 17:49 43.27808 -78.57258 15352 ft 418 kts 333°
2026-05-06 17:49 43.30544 -78.58619 14744 ft 417 kts 333°
2026-05-06 17:50 43.33247 -78.59960 14157 ft 416 kts 333°
2026-05-06 17:50 43.35987 -78.61324 13574 ft 415 kts 333°
2026-05-06 17:50 43.38682 -78.62667 12935 ft 414 kts 334°
2026-05-06 17:50 43.41397 -78.64020 12305 ft 413 kts 334°
2026-05-06 17:51 43.44069 -78.65354 11711 ft 411 kts 334°
2026-05-06 17:51 43.46753 -78.66694 11134 ft 409 kts 334°
2026-05-06 17:51 43.49404 -78.68016 10994 ft 397 kts 334°
2026-05-06 17:51 43.51918 -78.69268 10993 ft 384 kts 334°
2026-05-06 17:52 43.54435 -78.70517 10990 ft 376 kts 335°
2026-05-06 17:52 43.56950 -78.71316 10977 ft 359 kts 344°
2026-05-06 17:52 43.59338 -78.71821 10692 ft 337 kts 345°
2026-05-06 17:52 43.61600 -78.72257 9928 ft 325 kts 345°
2026-05-06 17:53 43.63809 -78.72715 9106 ft 315 kts 345°
2026-05-06 17:53 43.65949 -78.73180 8297 ft 306 kts 346°
2026-05-06 17:53 43.68022 -78.73620 7525 ft 297 kts 347°
2026-05-06 17:53 43.70044 -78.74042 6783 ft 289 kts 347°
2026-05-06 17:54 43.71953 -78.74441 5953 ft 272 kts 348°
2026-05-06 17:54 43.73843 -78.74844 5199 ft 271 kts 348°
2026-05-06 17:54 43.75668 -78.75229 4784 ft 257 kts 349°
2026-05-06 17:54 43.77380 -78.75588 4444 ft 246 kts 349°
2026-05-06 17:55 43.79051 -78.75942 4108 ft 238 kts 349°
2026-05-06 17:55 43.80669 -78.76284 3786 ft 231 kts 349°
2026-05-06 17:55 43.82245 -78.76618 3475 ft 226 kts 349°
2026-05-06 17:55 43.83769 -78.76941 3172 ft 223 kts 349°
2026-05-06 17:56 43.85309 -78.77267 2864 ft 222 kts 349°
2026-05-06 17:56 43.86830 -78.77588 2562 ft 218 kts 350°
2026-05-06 17:56 43.88257 -78.78115 2260 ft 214 kts 332°
2026-05-06 17:56 43.89380 -78.79426 1963 ft 211 kts 304°
2026-05-06 17:57 43.89966 -78.81186 1706 ft 192 kts 287°
2026-05-06 17:57 43.90367 -78.82871 1430 ft 175 kts 288°
2026-05-06 17:57 43.90759 -78.84326 1160 ft 146 kts 288°
2026-05-06 17:57 43.91108 -78.85604 973 ft 142 kts 288°
2026-05-06 17:58 43.91468 -78.86887 783 ft 144 kts 289°
2026-05-06 17:58 43.91828 -78.88185 589 ft 144 kts 289°
2026-05-06 17:58 43.92173 -78.89430 455 ft 120 kts 290°
2026-05-06 17:58 43.92380 -78.90156 459 ft 41 kts 291°
2026-05-06 17:59 43.92456 -78.90369 460 ft 14 kts 21°
2026-05-06 17:59 43.92499 -78.90275 461 ft 15 kts 104°
2026-05-06 17:59 43.92546 -78.90209 461 ft 15 kts 337°
2026-05-06 17:59 43.92585 -78.90194 461 ft 0 kts 72°